Temp
17 18 18 18 19 19 19 19 20 20 20 20 19 19 19 19 19 18 18 19 19 19 19 19 18 18 18 18 18 18 18 18 18 18 17 18 18 18 17 17 17 17
17 18 18 19 19 20 19 19 20 20 20 20 20 19 19 19 19 19 19 19 19 19 19 18 18 18 18 18 18 18 18 18 18 18 18 17 17 17 18 17 17 17
17 18 19 19 19 20 20 19 20 21 20 20 20 20 19 19 19 19 19 19 19 19 18 18 18 18 18 19 18 18 18 18 18 18 18 17 17 17 17 17 17 17
17 18 19 19 19 20 19 19 20 20 20 20 20 19 19 19 19 19 19 19 19 18 18 18 18 19 19 19 18 18 18 18 18 18 18 18 17 17 17 18 17 17
18 19 19 19 19 19 19 20 20 20 20 20 20 19 19 19 19 19 19 19 18 18 18 18 18 19 19 19 18 18 18 18 18 18 18 18 18 17 18 18 17 17
19 19 19 18 19 19 19 20 20 20 20 19 19 19 19 18 19 19 19 19 18 18 18 18 18 19 19 19 19 18 18 18 18 18 18 18 18 18 18 18 17 17
19 19 18 18 19 19 20 20 20 19 19 19 19 19 18 19 19 19 19 19 19 19 19 19 19 19 19 19 19 18 18 18 18 18 18 18 18 18 18 18 18 18
19 19 18 18 19 19 20 20 19 19 19 19 19 19 19 19 19 19 19 19 19 19 19 19 19 19 19 19 19 18 18 18 19 19 19 19 19 19 19 18 18 18
18 18 18 18 19 19 19 19 19 19 19 19 19 19 19 19 19 19 19 19 19 19 19 19 19 19 19 19 19 19 19 19 19 19 19 19 19 19 19 19 18 18
18 18 18 18 19 19 19 19 19 19 19 19 19 19 19 19 19 19 19 19 19 19 19 19 19 19 19 19 19 19 19 19 19 19 19 19 19 19 19 19 18 18
18 18 18 19 19 19 19 19 19 19 19 18 19 19 19 19 19 19 19 19 19 20 20 19 19 19 19 19 19 19 19 19 19 19 19 19 19 19 19 19 19 18
18 18 19 19 19 19 19 18 18 18 19 19 19 19 19 19 19 19 19 19 19 20 19 19 19 19 19 19 19 19 19 19 19 19 19 19 19 19 19 19 19 18
17 18 18 18 18 18 18 18 18 18 18 19 19 19 19 19 19 19 19 19 19 20 19 19 19 19 19 19 19 19 19 19 19 19 19 19 19 19 19 19 19 18
17 17 18 18 18 18 18 18 18 18 18 19 19 19 19 19 19 19 19 19 20 20 19 19 19 18 18 19 18 19 19 19 19 19 19 19 19 19 19 19 18 18
17 17 18 18 18 18 18 18 18 18 18 18 19 19 19 19 19 19 19 19 19 19 18 18 18 18 18 18 18 18 18 19 19 19 19 19 19 19 19 19 18 18
17 17 17 17 17 18 17 18 18 17 18 18 18 18 19 19 19 19 19 19 18 17 17 17 17 17 18 18 18 18 18 18 18 19 19 19 19 19 19 19 18 18
15 16 17 17 17 17 17 17 17 16 17 18 18 18 18 18 18 18 18 18 17 17 17 17 17 17 17 17 17 17 18 18 18 18 19 19 19 19 19 19 18 18
14 15 16 16 16 17 17 16 16 16 17 18 18 18 17 17 17 17 17 17 16 17 17 16 17 17 17 17 17 17 18 18 18 18 18 19 19 19 19 19 18 18
14 14 14 15 15 15 16 15 15 15 16 17 16 16 16 16 16 16 16 16 16 16 16 16 16 16 17 17 17 17 17 18 17 18 18 18 19 19 18 19 18 18
13 13 13 13 14 14 14 14 14 14 15 15 15 15 15 15 15 15 15 15 16 15 15 15 16 16 16 16 17 17 17 17 17 17 18 18 18 18 18 18 18 18
12 12 12 12 13 13 13 13 13 14 14 14 14 14 14 14 14 14 15 14 14 14 14 14 14 14 15 16 16 16 17 17 17 17 17 18 18 18 17 17 18 18
10 10 10 11 11 12 12 12 12 13 13 14 14 13 13 13 13 14 14 14 14 13 13 13 13 13 14 15 15 16 16 16 16 16 17 17 17 17 17 17 17 17
8 9 9 10 11 11 11 11 11 11 12 13 13 13 13 13 12 12 12 12 12 12 12 12 12 13 13 14 14 15 15 16 16 16 17 17 16 16 16 16 16 16
7 8 8 9 9 10 9 10 10 10 11 11 12 12 12 11 11 11 11 11 11 11 11 12 12 12 13 13 14 14 15 15 16 16 16 16 16 16 16 16 16 15
7 7 7 7 8 8 8 9 10 10 10 11 11 11 11 11 11 11 10 10 10 10 10 11 11 11 12 13 13 14 14 14 15 15 15 15 16 15 15 15 15 15
6 7 7 7 7 7 8 8 9 9 9 10 10 10 10 10 10 10 10 10 10 10 10 10 10 11 11 12 12 13 13 13 13 13 13 14 14 14 14 14 14 14
Height
797 799 799 798 798 799 801 804 806 808 809 810 810 811 812 812 813 814 815 816 817 819 820 820 821 822 823 823 824 825 826 827 828 829 830 831 833 833 834 836 837 838
796 797 797 797 797 798 800 804 807 807 808 809 810 811 811 812 813 814 815 816 817 819 820 820 821 822 823 824 824 825 826 827 828 829 830 831 832 832 834 835 837 838
792 794 795 796 796 796 800 804 806 807 808 809 810 811 811 812 813 814 815 816 817 818 819 820 821 822 823 824 825 825 826 827 828 829 830 831 831 832 833 835 836 837
784 789 792 794 794 795 800 804 805 806 807 809 810 811 811 812 813 814 815 816 817 818 819 820 821 822 823 824 824 825 826 827 828 829 830 830 831 832 833 834 835 836
776 784 789 792 793 795 800 803 804 805 807 808 809 810 811 812 813 813 815 816 816 818 819 820 821 822 823 823 824 825 826 827 828 829 829 830 831 832 832 834 835 836
773 779 785 790 792 795 799 801 802 804 806 807 808 809 810 811 812 813 814 815 816 818 819 820 821 822 823 823 824 825 826 827 828 828 829 830 831 832 832 834 835 836
772 775 781 787 791 795 797 799 801 803 805 806 807 808 809 811 812 812 814 815 817 818 819 820 821 822 823 823 824 825 826 827 827 828 829 829 831 832 832 833 835 835
773 773 776 784 791 795 796 798 800 802 804 805 806 808 809 810 811 812 814 816 817 818 819 820 821 822 823 823 824 825 826 826 827 827 828 829 830 831 832 833 834 835
774 773 774 781 789 794 795 797 799 801 803 804 806 808 809 810 811 813 814 816 817 818 818 819 821 822 822 823 824 825 826 826 827 827 827 828 829 830 831 832 833 835
775 775 775 780 785 790 793 795 798 800 802 804 806 807 808 810 811 813 815 816 817 818 818 819 821 822 823 823 824 825 825 826 826 827 827 828 829 830 831 832 833 835
775 776 777 779 783 786 791 794 797 800 802 804 805 807 808 809 811 813 815 816 817 817 818 820 821 822 823 823 824 825 825 826 827 827 828 829 829 830 831 832 833 835
774 776 778 780 782 785 790 794 796 799 801 803 806 807 808 809 811 813 815 816 817 817 818 820 821 822 823 823 824 825 825 826 827 827 828 829 829 831 831 832 833 834
774 777 779 781 784 786 790 794 797 799 801 803 806 807 808 809 811 813 815 816 817 818 819 820 821 822 822 823 824 825 825 826 826 827 828 829 830 831 832 832 832 833
775 778 780 783 785 788 791 794 797 800 801 804 806 806 808 809 811 813 814 816 817 818 819 819 820 821 822 822 823 824 825 826 827 828 828 829 831 831 831 832 832 833
775 778 780 783 785 788 791 794 797 800 802 804 806 807 808 810 811 813 815 816 817 817 818 819 820 821 822 823 824 824 825 827 828 829 829 830 831 831 832 833 832 833
776 778 780 783 785 788 791 794 797 801 803 805 806 807 809 810 812 814 815 816 817 817 818 820 821 822 823 824 825 825 826 827 828 829 829 830 831 831 832 833 833 833
777 780 781 784 786 789 792 794 798 802 804 805 806 808 810 811 812 813 814 815 816 818 820 821 822 823 824 825 825 826 827 827 828 830 830 830 831 832 832 833 833 834
780 781 782 785 787 789 791 795 801 806 806 806 807 809 810 810 812 813 814 815 817 819 821 822 823 824 824 825 826 826 828 828 829 830 830 831 832 832 833 833 833 834
781 781 782 785 787 788 791 797 803 807 806 805 807 809 809 811 812 813 815 816 818 820 822 823 824 824 825 826 827 827 828 829 829 830 831 831 832 832 833 833 834 835
782 783 784 786 787 789 794 799 803 804 805 806 808 809 810 812 813 815 816 818 819 821 823 823 824 825 826 827 827 828 829 829 830 830 830 831 832 832 833 834 834 835
785 785 787 789 791 793 797 801 803 803 805 807 808 810 812 813 815 816 817 819 821 822 823 824 825 826 827 828 828 829 829 830 830 830 831 832 832 833 834 835 835 836
789 790 792 793 795 797 799 802 803 803 805 808 810 812 813 814 816 818 819 820 822 823 825 826 827 827 828 828 829 829 830 830 831 832 832 832 833 833 834 835 836 836
794 794 796 797 798 800 802 804 805 806 807 809 812 814 815 816 818 819 820 822 823 825 827 827 828 828 829 829 830 830 830 831 831 832 833 833 834 834 835 835 836 837
799 799 801 801 801 802 804 805 807 809 810 811 813 815 817 819 820 820 822 824 825 826 828 828 829 829 830 830 830 831 831 831 831 832 832 833 834 835 835 835 836 836
802 803 804 805 805 807 807 808 809 812 813 813 815 818 820 821 822 823 824 826 826 827 828 829 830 830 831 831 831 831 832 832 832 832 832 833 834 835 836 835 835 836
806 806 807 808 809 810 811 811 812 814 815 816 817 819 821 823 824 825 826 827 828 828 829 830 831 831 831 832 832 832 832 832 833 833 833 834 834 835 836 837 836 836
Wind_Speed
20 23 23 21 21 18 13 14 16 16 14 13 13 12 12 12 11 10 9 9 8 7 7 7 7 7 6 6 7 7 6 7 7 7 7 8 8 8 8 7 7 8
25 25 23 22 21 19 15 14 16 15 13 13 13 13 13 12 12 11 10 9 8 7 7 7 7 6 6 5 6 6 5 6 7 7 7 7 7 8 9 8 7 7
30 27 24 23 22 21 17 15 15 14 13 13 13 13 14 13 12 11 10 9 9 8 7 7 6 5 5 6 6 5 5 6 7 7 7 7 7 7 8 9 8 8
33 28 24 23 23 21 17 16 16 15 13 14 14 14 14 13 12 11 10 9 9 8 8 7 6 5 5 5 6 5 4 6 7 7 7 7 7 7 7 8 9 9
34 29 26 22 22 21 20 20 18 15 15 15 14 14 13 12 11 10 10 9 8 8 7 6 6 5 4 4 5 5 4 5 5 6 7 6 7 7 6 7 8 9
35 32 27 22 21 22 22 21 18 16 16 15 14 13 13 12 11 11 11 9 8 8 7 6 5 4 4 4 5 4 3 4 4 4 6 6 6 6 5 6 7 8
36 34 28 22 22 23 22 20 18 17 16 15 14 13 13 13 11 11 10 9 9 9 7 7 5 4 4 3 4 5 4 4 4 4 5 6 6 5 5 5 6 8
34 34 30 25 23 22 21 20 19 18 17 15 14 14 13 12 11 11 10 9 9 9 8 7 5 4 4 4 5 5 4 5 5 4 6 7 6 5 5 5 4 6
32 32 31 31 27 24 22 20 19 18 17 16 14 13 13 11 10 10 9 9 9 9 8 7 5 5 4 4 5 6 5 5 4 4 5 6 6 5 6 7 4 4
30 29 32 33 30 27 24 21 20 18 17 16 14 13 13 11 11 10 8 8 8 9 9 7 5 5 4 4 5 6 5 5 3 3 4 5 5 4 5 7 5 3
28 28 31 32 30 28 26 22 20 19 17 15 14 13 12 11 12 10 7 8 8 8 9 8 6 6 4 4 5 5 5 5 4 4 5 5 4 2 3 5 4 3
26 26 28 29 28 27 25 22 20 19 17 15 13 13 12 11 11 9 8 8 8 7 9 7 6 6 5 4 5 4 4 4 4 5 5 3 4 3 3 5 4 3
23 24 26 26 26 27 24 22 19 18 17 16 13 13 13 12 10 9 8 8 8 7 8 8 7 6 6 5 4 4 4 3 3 4 3 3 3 3 3 5 4 3
22 23 25 25 25 25 24 22 19 18 16 14 13 13 13 12 10 9 8 8 8 8 9 9 8 7 7 5 4 5 5 4 4 2 2 3 2 1 5 5 3 2
23 23 25 24 24 24 22 21 20 17 14 13 13 13 12 11 11 10 9 8 9 10 10 9 7 6 7 5 5 7 6 3 4 4 2 4 3 0 4 4 4 4
24 24 26 24 23 23 21 20 18 15 13 14 14 13 12 12 11 10 9 9 11 11 10 9 8 7 7 5 5 7 6 4 3 3 2 3 5 4 3 4 6 5
21 21 24 24 22 23 21 19 17 12 11 14 14 13 12 12 12 11 11 12 11 10 9 8 7 7 6 5 5 6 7 6 4 1 1 1 1 2 3 6 8 6
17 17 21 21 21 21 20 19 15 10 11 15 15 14 14 14 14 14 14 13 11 9 8 7 7 6 5 5 4 4 6 6 5 3 0 1 1 1 1 5 8 7
17 19 22 22 21 20 19 18 16 13 14 17 16 16 17 16 16 16 15 13 11 9 8 7 7 6 5 5 5 4 5 3 3 4 0 2 2 1 3 2 6 9
20 22 25 25 24 23 22 21 20 20 19 19 18 18 18 17 16 15 14 12 10 10 9 8 7 6 5 6 5 5 6 4 2 5 3 2 3 3 4 6 5 5
24 26 27 27 27 27 26 24 23 23 22 20 20 19 17 16 15 13 12 11 10 10 9 9 9 7 6 6 6 5 5 3 2 5 4 5 5 4 3 4 3 2
25 27 27 26 26 26 25 23 22 23 22 19 19 18 16 14 12 10 9 7 6 6 7 8 8 7 6 5 5 6 4 3 2 2 2 4 4 2 2 3 2 1
25 26 25 24 23 23 21 20 20 20 19 17 16 15 14 14 13 11 10 9 8 6 6 7 7 7 5 4 4 5 4 5 5 3 2 1 1 1 1 2 1 1
27 27 25 24 23 21 20 19 18 16 15 13 12 12 12 14 15 14 13 12 11 9 7 7 6 6 6 4 4 3 2 3 5 6 5 3 3 3 1 1 3 3
28 28 27 25 23 21 21 21 19 17 16 15 13 13 13 13 13 13 12 10 10 9 7 6 6 6 6 5 5 4 3 3 3 5 7 7 6 7 6 2 1 2
27 27 26 25 23 21 20 20 19 18 17 18 17 15 14 12 10 10 10 9 9 8 6 6 8 8 8 7 7 6 4 2 2 3 5 6 5 8 9 6 2 1
Wind_Direction
200 203 198 192 184 174 174 181 182 179 176 172 168 166 166 165 162 157 157 160 159 159 159 156 156 155 155 161 166 169 173 177 178 177 178 176 182 185 171 162 167 160
192 200 197 190 183 174 174 185 185 178 172 169 168 167 164 162 161 159 159 160 159 160 158 153 153 150 150 161 170 172 177 176 173 179 183 178 186 191 179 174 178 171
186 191 187 185 180 169 171 186 184 175 169 165 164 162 158 157 158 159 159 160 162 162 155 151 153 150 154 169 173 173 186 188 180 183 186 184 189 193 188 184 181 179
177 180 180 181 171 163 175 186 176 167 164 160 158 157 154 154 157 157 156 157 159 158 154 153 156 158 162 166 163 166 188 196 192 193 190 186 193 201 201 190 184 187
169 171 174 177 168 168 181 179 168 162 160 156 153 152 153 155 155 154 154 153 151 152 154 155 156 161 161 150 150 164 182 186 188 197 194 187 192 205 205 188 188 197
164 164 168 175 172 173 174 167 164 162 157 155 151 151 154 156 154 154 155 154 154 155 155 157 159 161 162 149 151 160 163 174 177 182 188 180 179 193 192 182 190 193
164 161 164 170 169 168 167 164 163 159 155 154 151 153 156 155 154 154 155 158 161 162 160 162 163 160 160 150 150 156 159 173 171 168 182 171 162 178 180 181 190 184
165 160 159 163 166 167 166 162 159 157 157 155 153 155 153 152 154 153 159 166 163 166 168 162 161 156 160 163 156 156 162 170 173 189 192 166 151 171 178 178 190 186
166 159 156 161 167 169 165 158 157 158 158 154 153 154 150 151 154 152 164 172 168 175 169 154 156 155 160 171 156 154 165 170 181 200 179 140 142 187 189 178 181 193
167 160 159 163 166 166 162 158 158 159 157 154 154 153 151 154 153 154 169 171 173 181 162 146 153 155 169 179 157 164 175 166 168 165 136 133 164 203 182 162 163 182
167 165 163 163 162 159 158 158 157 156 156 155 155 155 154 151 149 157 167 166 180 180 151 145 156 156 175 180 161 177 179 167 173 161 153 163 158 106 92 117 135 160
167 164 161 160 158 155 156 157 154 155 156 156 157 157 152 147 149 160 165 164 181 174 147 153 168 165 178 171 157 174 176 170 170 156 160 157 112 92 73 73 105 157
166 162 158 157 156 153 153 154 154 159 158 155 157 156 149 149 154 161 162 165 175 166 149 156 161 155 156 148 147 167 175 168 147 142 156 128 105 141 118 67 84 134
163 159 156 154 153 151 150 152 157 161 158 155 157 152 148 152 155 156 162 169 165 147 137 141 140 136 139 130 114 135 151 159 159 176 171 124 92 88 92 73 90 111
154 155 154 150 149 150 148 149 154 158 158 159 156 150 149 152 151 154 164 160 139 126 124 126 123 124 133 122 89 105 117 137 168 193 202 160 176 155 80 86 123 109
148 150 153 150 147 149 148 146 150 158 161 157 153 150 150 149 145 148 150 135 120 115 115 116 116 119 123 113 90 97 102 102 138 181 233 196 187 186 153 127 124 114
146 147 151 150 145 145 148 145 148 162 162 150 147 145 141 138 135 132 130 126 119 114 111 112 121 126 125 125 109 97 101 100 97 117 256 247 197 194 162 136 122 105
140 135 136 139 140 140 141 139 145 167 160 143 138 134 129 127 126 125 125 126 124 120 120 123 128 135 146 159 149 119 114 103 69 53 145 202 202 209 124 144 142 124
127 118 115 122 131 135 136 136 138 139 131 124 118 117 121 121 119 121 121 122 122 123 125 126 129 136 151 167 175 174 168 153 35 29 157 212 192 123 30 63 128 128
112 107 105 110 118 124 127 129 129 122 115 112 111 114 117 115 112 113 111 110 116 122 125 126 129 137 150 167 181 188 188 192 17 23 33 58 78 77 44 37 62 92
97 99 101 105 110 115 117 117 119 119 115 112 111 111 110 108 106 106 103 102 106 112 115 113 112 121 138 159 179 187 186 180 32 24 34 45 53 74 68 47 41 28
85 92 95 99 103 107 108 107 108 112 113 114 113 111 110 109 108 105 106 113 118 117 114 104 96 103 115 126 146 158 155 127 68 16 7 22 28 66 61 21 20 68
76 84 89 95 99 100 100 100 100 105 111 118 119 115 111 111 115 119 122 131 139 134 118 103 90 87 91 95 114 125 120 102 78 37 347 334 356 69 47 331 310 137
69 74 78 85 90 92 93 96 98 100 106 114 118 118 117 115 119 122 120 119 120 113 99 90 81 72 68 66 79 88 89 83 56 29 32 60 55 50 56 235 196 178
65 68 69 71 77 83 88 92 95 96 100 106 109 110 113 115 116 116 111 105 101 95 84 70 58 49 42 37 39 43 47 68 50 28 45 63 59 52 54 59 174 163
60 63 63 64 68 73 78 86 92 94 97 100 99 99 100 101 100 98 93 87 83 78 66 50 39 31 24 17 13 15 16 21 30 30 39 43 38 38 40 35 27 51